Weather in Jersey City

United States     40°42′52″N   74°04′05″W
temp.,
°C
wind,
m/s
gust,
m/s
humid.,
%
clouds,
%
prec.,
mm/h
press.,
hPa
HPBL,
m
23 may, mon
mon2323:00+22nnw497895 1.1 1017514
02:00+19nnw587199 1.4 1018465
05:00+17nnw5763100 0.0 1019599
08:00+17n565398 0.0 1022751
11:00+21n563492 0.0 10221029
14:00+24n442759 0.0 10211450
17:00+24nne4427100 0.0 10211621
20:00+22ene2335100 0.0 1022702
24 may, tue
tue2423:00+19sse3449100 0.0 1023487
02:00+16sse3368100 0.0 1024422
05:00+16ese2363100 0.1 1024405
08:00+17e3454100 0.1 1025724
11:00+21ese4440100 0.0 10251483
14:00+21sse653734 0.0 10251507
17:00+20sse553865 0.0 10251176
20:00+17sse4542100 0.0 1026611
25 may, wed
wed2523:00+16ese354587 0.0 1026524
02:00+16ese345599 0.0 1026542
05:00+16e3355100 0.0 1026546
08:00+16e3453100 0.0 1028569
11:00+17ese3445100 0.0 1028719
14:00+19sse4440100 0.0 1028934
17:00+17sse454491 0.0 1027613
20:00+16sse4547100 0.0 1027478
26 may, thu
thu2623:00+15se365516 0.0 1028402
02:00+15sse36645 0.0 1026494
05:00+14se267742 0.0 1026350
08:00+17sse466987 0.0 1026640
11:00+17sse5872100 0.0 1025689
14:00+17sse4878100 0.3 1024592
17:00+16sse41088100 0.8 1021514
20:00+17sse41092100 1.0 1020475
27 may, fri
fri2723:00+17s3796100 0.0 1019307
02:00+17sw249740 0.1 1017196
05:00+17ssw2799100 0.0 1016313
08:00+19sw369092 0.0 1016325
11:00+23sw4875100 0.3 1015762
14:00+29sw7104897 0.3 10121591
17:00+29sw7104894 0.0 10111741
20:00+25sw51072100 0.9 1012827